N5DUP Weather Reports


time (UTC)temp
C
wind
direction
speed
KPH
gust
KPH
rain 1hr
cm
rain 24hr
cm
rain mn
cm
humidity
%
barometer
mb
20260506103352 10 42 9.7 17.7 0.00 0.00 0.00 79 1011.2
20260506101824 10 46 11.3 17.7 0.00 0.00 0.00 80 1011.3
20260506100316 10 54 8.0 14.5 0.00 0.00 0.00 81 1011.3
20260506094826 10 46 6.4 11.3 0.00 0.00 0.00 81 1010.7
20260506093320 10 46 6.4 17.7 0.00 0.00 0.00 81 1010.4
20260506091850 10 5 6.4 16.1 0.00 0.00 0.00 80 1010.6
20260506090343 10 53 6.4 9.7 0.00 0.00 0.00 80 1010.5
20260506084816 11 46 6.4 9.7 0.00 0.00 0.00 79 1010.5
20260506083327 11 53 9.7 17.7 0.00 0.00 0.00 79 1010.3
20260506081822 11 45 6.4 11.3 0.00 0.00 0.00 78 1010.3
20260506080338 11 59 6.4 14.5 0.00 0.00 0.00 78 1010.4
20260506073317 11 59 9.7 16.1 0.00 0.00 0.00 77 1010.5
20260506071830 12 58 8.0 14.5 0.00 0.00 0.00 76 1010.3
20260506070327 12 41 6.4 16.1 0.00 0.00 0.00 75 1010.3
20260506061826 13 61 9.7 17.7 0.00 0.00 0.00 71 1010.1
20260506060319 13 42 8.0 16.1 0.00 0.00 0.00 71 1010.0
20260506050340 15 63 6.4 14.5 0.00 0.00 0.00 65 1009.1
20260506044820 16 82 9.7 17.7 0.00 0.00 0.00 63 1008.8
20260506043330 16 59 8.0 16.1 0.00 0.00 0.00 62 1008.9
20260506041822 17 56 8.0 14.5 0.00 0.00 0.00 60 1009.0
20260506040330 17 69 12.9 20.9 0.00 0.00 0.00 57 1008.8
20260506034824 18 84 6.4 14.5 0.00 0.00 0.00 56 1008.7
20260506033332 19 67 8.0 12.9 0.00 0.00 0.00 56 1008.7
20260506031827 19 69 3.2 6.4 0.00 0.00 0.00 57 1008.5
20260506030320 20 65 3.2 12.9 0.00 0.00 0.00 56 1008.3
20260506024814 20 71 4.8 9.7 0.00 0.00 0.00 54 1008.1
20260506023326 21 84 4.8 8.0 0.00 0.00 0.00 54 1007.9
20260506021841 21 89 3.2 9.7 0.00 0.00 0.00 53 1007.6
20260506020325 22 80 4.8 11.3 0.00 0.00 0.00 51 1007.2
20260506014819 22 98 3.2 9.7 0.00 0.00 0.00 50 1007.1
20260506013331 23 80 6.4 14.5 0.00 0.00 0.00 48 1006.7
20260506011841 23 83 8.0 14.5 0.00 0.00 0.00 47 1006.6
20260506010333 24 92 6.4 14.5 0.00 0.00 0.00 46 1006.1
20260506004822 25 72 6.4 14.5 0.00 0.00 0.00 45 1006.0
20260506003316 26 52 9.7 16.1 0.00 0.00 0.00 39 1005.7
20260506001827 26 53 3.2 14.5 0.00 0.00 0.00 37 1005.5
20260506000337 27 65 8.0 11.3 0.00 0.00 0.00 32 1005.0
20260505234827 27 61 1.6 8.0 0.00 0.00 0.00 31 1005.3
20260505233345 28 59 3.2 9.7 0.00 0.00 0.00 31 1004.7
20260505231840 28 36 3.2 9.7 0.00 0.00 0.00 29 1004.7
20260505230332 29 55 8.0 12.9 0.00 0.00 0.00 28 1004.8
20260505224825 30 22 4.8 12.9 0.00 0.00 0.00 27 1004.9
20260505223326 30 32 3.2 8.0 0.00 0.00 0.00 26 1004.6
20260505221818 31 9 6.4 14.5 0.00 0.00 0.00 24 1004.4
20260505220331 32 54 6.4 17.7 0.00 0.00 0.00 23 1003.9
20260505213320 32 229 8.0 17.7 0.00 0.00 0.00 17 1004.0
20260505211833 32 227 8.0 17.7 0.00 0.00 0.00 17 1004.2
20260505210327 32 263 9.7 16.1 0.00 0.00 0.00 17 1004.6
20260505204837 32 229 8.0 16.1 0.00 0.00 0.00 22 1004.6
20260505203329 32 210 4.8 22.5 0.00 0.00 0.00 23 1004.6
20260505201825 32 232 4.8 22.5 0.00 0.00 0.00 19 1004.6
20260505200317 32 239 9.7 12.9 0.00 0.00 0.00 20 1004.9
20260505194829 31 227 8.0 17.7 0.00 0.00 0.00 25 1005.3
20260505193340 31 225 8.0 16.1 0.00 0.00 0.00 26 1005.2
20260505191826 31 207 6.4 12.9 0.00 0.00 0.00 28 1005.3
20260505190316 31 229 9.7 16.1 0.00 0.00 0.00 29 1005.5
20260505184829 31 188 4.8 14.5 0.00 0.00 0.00 33 1005.4
20260505183319 30 194 6.4 14.5 0.00 0.00 0.00 34 1005.8
20260505181832 30 191 4.8 16.1 0.00 0.00 0.00 40 1006.2
20260505180326 28 219 6.4 11.3 0.00 0.00 0.00 41 1006.3
20260505174817 28 217 8.0 12.9 0.00 0.00 0.00 45 1006.4
20260505173329 27 230 8.0 14.5 0.00 0.00 0.00 47 1006.4
20260505171818 27 211 6.4 11.3 0.00 0.00 0.00 49 1006.4
20260505170330 27 218 8.0 16.1 0.00 0.00 0.00 48 1006.5
20260505164843 26 238 8.0 14.5 0.00 0.00 0.00 52 1006.5
20260505163314 26 207 6.4 14.5 0.00 0.00 0.00 54 1006.4
20260505161827 25 226 9.7 17.7 0.00 0.00 0.00 56 1006.6
20260505160318 25 223 8.0 14.5 0.00 0.00 0.00 57 1006.7
20260505153315 24 228 8.0 14.5 0.00 0.00 0.00 62 1006.4
20260505151828 23 231 8.0 14.5 0.00 0.00 0.00 65 1006.2
20260505150340 23 225 8.0 17.7 0.00 0.00 0.00 69 1005.9
20260505140323 21 209 11.3 24.1 0.00 0.00 0.00 73 1005.4
20260505124828 20 217 9.7 17.7 0.00 0.00 0.00 76 1004.9
20260505123322 20 212 9.7 14.5 0.00 0.00 0.00 77 1004.9
20260505121831 19 203 9.7 14.5 0.00 0.00 0.00 77 1004.6
20260505120323 19 213 9.7 19.3 0.00 0.00 0.00 77 1004.5
20260505114855 19 217 11.3 19.3 0.00 0.00 0.00 78 1004.4
20260505113328 18 223 9.7 16.1 0.00 0.00 0.00 78 1004.4
20260505111821 18 209 9.7 12.9 0.00 0.00 0.00 79 1004.4
20260505110315 18 215 9.7 12.9 0.00 0.00 0.00 78 1004.4